Preview of NWS' New Version of Forecast
This preview is not operational and should not be used for support decisions.

Regional Weather Roundup (RWR)

Issued by National Weather Service (NWS)

                            
000
ASUS43 KMKX 201100
RWRWI 

WISCONSIN REGIONAL WEATHER ROUNDUP
NATIONAL WEATHER SERVICE MILWAUKEE/SULLIVAN WI
600 AM CDT THU JUN 20 2019

NOTE: "FAIR" INDICATES FEW OR NO CLOUDS BELOW 12,000 FEET WITH NO
SIGNIFICANT WEATHER AND/OR OBSTRUCTIONS TO VISIBILITY.

WIZ001-002-006>008-014>016-023>028-201200-
NORTHWEST WISCONSIN
  
CITY           SKY/WX    TMP DP  RH WIND       PRES   REMARKS
SUPERIOR ARPT  FAIR      46  46 100 CALM      29.85R                  
ASHLAND        FAIR      44  44 100 CALM      29.86R                  
HAYWARD        FAIR      50  47  89 NE5       29.85R                  
SIREN          FAIR      57  47  70 E6        29.83R                  
CUMBERLAND     MOCLDY    55  45  67 NE5       29.83R                  
RICE LAKE      FAIR      57  48  70 NE5       29.84R                  
CHETEK         FAIR      56  49  76 CALM      29.83R                  
LADYSMITH      FAIR      52  46  78 N3        29.85R                  
EAU CLAIRE     NOT AVBL                                               
MENOMONIE      MOCLDY    56  49  78 E5        29.81R                  
NEW RICHMOND   FAIR      59  50  73 E6        29.80R                  
OSCEOLA        FAIR      61  51  70 E3        29.82R                  
$$
 
WIZ003>005-009-010-017-018-201200-
NORTH CENTRAL WISCONSIN
  
CITY           SKY/WX    TMP DP  RH WIND       PRES   REMARKS
MANITOWISH WTR FAIR      46  46 100 CALM      29.84R                  
ARBOR VITAE    FAIR      46  44  93 CALM      29.83R                  
WOODRUFF       FAIR      46  44  93 CALM      29.83R                  
RHINELANDER    FAIR      51  44  77 CALM      29.84R                  
EAGLE RIVER    FAIR      42  41  97 CALM      29.83R                  
LAND O LAKES   CLOUDY    44  44 100 CALM      29.86R                  
PHILLIPS       FAIR      47  47 100 CALM      29.83R                  
TOMAHAWK       FAIR      44  43  97 CALM      29.84R                  
MEDFORD        FAIR      49  44  81 NE5       29.82R                  
MERRILL        FAIR      48  46  91 CALM      29.83R                  
$$
 
WIZ029-030-035-036-043>047-201200-
CENTRAL WISCONSIN
  
CITY           SKY/WX    TMP DP  RH WIND       PRES   REMARKS
WAUSAU         FAIR      53  43  68 NW5       29.80R                  
MOSINEE        MOCLDY    52  45  76 N7        29.81R                  
MARSHFIELD     FAIR      54  44  69 NE8       29.78R                  
STEVENS POINT  FAIR      51  45  82 N5        29.79R                  
WAUPACA        FAIR      57  48  71 N7        29.76S                  
WAUTOMA        FAIR      56  48  74 N7        29.76R                  
WISC RAPIDS    FAIR      56  46  69 N9        29.79R                  
CAMP DOUGLAS   FAIR      51  51 100 W5        29.78R                  
$$
 
WIZ011>013-019>022-031-037>040-048>050-201200-
NORTHEAST WISCONSIN
  
CITY           SKY/WX    TMP DP  RH WIND       PRES   REMARKS
ANTIGO         FAIR      49  42  76 N6        29.81R                  
SHAWANO        FAIR      56  47  70 N8        29.76S                  
OCONTO         FAIR      53  46  78 N7        29.75S                  
STURGEON BAY   FAIR      55  49  80 N8        29.75R                  
GREEN BAY      FAIR      55  48  77 N8        29.74R                  
MANITOWOC      CLOUDY    56  47  71 N8G17     29.72R                  
APPLETON       NOT AVBL                                               
CLINTONVILLE   FAIR      55  44  68 N7        29.77R                  
OSHKOSH        CLOUDY    59  51  75 N13       29.72R                  
$$
 
WIZ032>034-041-042-053>061-201200-
SOUTHWEST WISCONSIN
  
CITY           SKY/WX    TMP DP  RH WIND       PRES   REMARKS
LA CROSSE      FAIR      61  54  77 CALM      29.78R                  
SPARTA         FAIR      46  46  99 CALM      29.79R                  
VIROQUA        FAIR      55  55 100 NE5       29.78S                  
BOSCOBEL       FAIR      54  53  97 CALM      29.77R                  
PRAIRIE DU CHI MOCLDY    57  56  97 CALM      29.76R                  
PLATTEVILLE    FAIR      57  57 100 N7        29.76R                  
$$

WIZ056-057-062-063-064-067-068-201200-
SOUTH CENTRAL WISCONSIN
  
CITY           SKY/WX    TMP DP  RH WIND       PRES   REMARKS
REEDSBURG      FAIR      55  54  94 CALM      29.76R                  
BARABOO/DELLS  FAIR      55  51  87 NW3       29.76R                  
LONE ROCK      FAIR      56  54  93 W5        29.76R                  
MINERAL POINT  FAIR      55  55 100 N7        29.76R                  
MADISON        MOCLDY    57  54  89 N9        29.72R                  
MIDDLETON      FAIR      58  55  89 N7        29.73R                  
WATERTOWN      CLOUDY    57  54  89 N7        29.70R                  
MONROE         FAIR      56  54  94 N8        29.72R                  
JANESVILLE     MOCLDY    59  59 100 N8        29.69R                  
$$
 
WIZ051-052-058>065-066-070>072-201200-
SOUTHEAST WISCONSIN
  
CITY           SKY/WX    TMP DP  RH WIND       PRES   REMARKS
MILWAUKEE      LGT RAIN  55  53  93 N9G20     29.66R                  
WAUKESHA       CLOUDY    54  54 100 N6        29.68R                  
MILWAUKEE/TIMM CLOUDY    54  50  87 N9        29.68R                  
RACINE         LGT RAIN  52  51  97 N16       29.66R FOG              
KENOSHA        CLOUDY    56  56 100 N9        29.64R                  
FOND DU LAC    CLOUDY    61  49  64 N12       29.72R                  
SHEBOYGAN      LGT RAIN  54  50  86 NE10      29.70R FOG              
WEST BEND      LGT RAIN  54  52  94 NE9       29.69R                  
JUNEAU         CLOUDY    57  50  77 N9        29.72R                  
$$

LSZ147-162-201200-
LAKE SUPERIOR
  
STATION/POSITION TIME  TEMP    WIND        PRES    WAVE
                       AIR SEA DIR/SP/G            HT/PER
                 (UTC) (F)     (DEG/KT/KT) (MB)    (FT/S)
W MID LAKE BUOY  0950   43 38  320/  4/  4 1010.5R   0
$$
 
LMZ867-665-643>646-201200-
LAKE MICHIGAN
  
STATION/POSITION TIME  TEMP    WIND        PRES    WAVE
                       AIR SEA DIR/SP/G            HT/PER
                 (UTC) (F)     (DEG/KT/KT) (MB)    (FT/S)
N MID LAKE BUOY  1040   44 39   10/ 10/ 10 1007.8S
NORTHPORT PIER   1040   56     330/  3/  5 1007.5S
KEWAUNEE LAKESHO 1030   55      30/  5/ 11 1005.9S
SHEBOYGAN LAKESH 1000   49      10/ 19/ 21 1005.2F
MILWAUKEE LAKESH 1030   52     360/ 15/ 18   N/A
S MID LAKE BUOY  1040   50 46   20/ 12/ 14 1002.9F
KENOSHA   LAKESH 1000   55      10/ 14/ 18 1003.0
$$

TC  - TEMPERATURE IN CELSIUS
VSB - VISIBILITY IN STATUTE MILES
WCI - WIND CHILL INDEX
HX  - HEAT INDEX